Hourly Data Report for October 03, 2016

All times are specified in Local Standard Time (LST). Add 1 hour to adjust for Daylight Saving Time where and when it is observed.

KITCHENER/WATERLOO
ONTARIO

43°27'39.000" N
80°22'43.000" W
321.60 m
6144239
71368
YKF

Download Data

Hourly Data (October 2016)
Hourly Data Report for October 3, 2016
Temp Definition
°C
Dew Point Temp Definition
°C
Rel Hum Definition
%
Wind Dir Definition
10's deg

Wind Spd Definition
km/h
Visibility Definition
km
Stn Press Definition
kPa
Hmdx Definition


Wind Chill Definition


Weather Definition


TIME
00:00 Legend Double Dagger 13.6 13.0 96 25 5 4.8 97.83     Fog
01:00 Legend Double Dagger 13.8 13.2 96 29 9 6.4 97.84     Fog
02:00 Legend Double Dagger 13.6 13.0 96 31 8 4.8 97.84     Fog
03:00 Legend Double Dagger 13.7 13.1 96 31 9 4.8 97.83     Rain,Fog
04:00 Legend Double Dagger 13.4 12.8 96 30 9 4.8 97.84     Fog
05:00 Legend Double Dagger 13.5 12.9 96 30 9 6.4 97.88     Fog
06:00 Legend Double Dagger 13.5 12.2 92 33 9 16.1 97.93     LegendNANA
07:00 Legend Double Dagger 13.4 12.0 91 1 13 16.1 97.96     LegendNANA
08:00 Legend Double Dagger 13.3 12.0 92 36 11 16.1 98.05     LegendNANA
09:00 Legend Double Dagger 13.4 12.1 92 2 8 16.1 98.08     LegendNANA
10:00 Legend Double Dagger 14.5 12.1 85 1 9 16.1 98.10     LegendNANA
11:00 Legend Double Dagger 15.2 12.3 83 7 8 16.1 98.11     LegendNANA
12:00 Legend Double Dagger 15.5 12.2 81 34 5 16.1 98.13     LegendNANA
13:00 Legend Double Dagger 16.4 12.7 78 28 9 16.1 98.09     LegendNANA
14:00 Legend Double Dagger 17.5 12.6 73 33 9 16.1 98.09     LegendNANA
15:00 Legend Double Dagger 18.4 13.0 70 30 9 16.1 98.07     LegendNANA
16:00 Legend Double Dagger 16.9 12.5 75 2 8 16.1 98.10     LegendNANA
17:00 Legend Double Dagger 16.6 13.3 80 35 5 16.1 98.15     LegendNANA
18:00 Legend Double Dagger 16.0 13.5 85 36 5 16.1 98.18     LegendNANA
19:00 Legend Double Dagger 15.5 13.4 87 2 4 16.1 98.24     LegendNANA
20:00 Legend Double Dagger 15.0 13.6 91 6 5 16.1 98.28     LegendNANA
21:00 Legend Double Dagger 13.5 12.4 93 6 9 16.1 98.31     LegendNANA
22:00 Legend Double Dagger 12.3 11.7 96 5 4 16.1 98.35     LegendNANA
23:00 Legend Double Dagger 10.7 10.3 97 4 4 1.2 98.38     Rain,Fog

Notes on Data Quality.

Legend

  • E = Estimated
  • M = Missing
  • NA = Not Available
  • ‡ = Partner data that is not subject to review by the National Climate Archives
Date modified: